| time (UTC) | temp C | wind direction | speed KPH | gust KPH | rain 1hr cm | rain 24hr cm | rain mn cm | humidity % | barometer mb |
| 20260506221946 | 7 | 4 | 6.4 | 9.7 | 0.30 | 2.11 | 2.11 | 99 | 1004.4 |
| 20260506221443 | 7 | 17 | 4.8 | 6.4 | 0.43 | 2.11 | 2.11 | 99 | 1004.4 |
| 20260506220936 | 7 | 35 | 6.4 | 9.7 | 0.43 | 2.06 | 2.06 | 99 | 1004.6 |
| 20260506220431 | 7 | 349 | 3.2 | 12.9 | 0.43 | 2.01 | 2.01 | 99 | 1004.4 |
| 20260506215928 | 7 | 9 | 6.4 | 11.3 | 0.66 | 1.98 | 1.98 | 99 | 1004.6 |
| 20260506215424 | 7 | 339 | 6.4 | 12.9 | 0.79 | 1.93 | 1.93 | 99 | 1004.7 |
| 20260506214920 | 7 | 325 | 9.7 | 12.9 | 0.48 | 1.85 | 1.85 | 99 | 1004.3 |
| 20260506214417 | 7 | 4 | 6.4 | 17.7 | 0.30 | 1.80 | 1.80 | 99 | 1004.2 |
| 20260506213915 | 7 | 356 | 6.4 | 9.7 | 0.13 | 1.78 | 1.78 | 99 | 1004.0 |
| 20260506213412 | 8 | 286 | 6.4 | 11.3 | 0.18 | 1.75 | 1.75 | 99 | 1004.0 |
| 20260506212910 | 8 | 3 | 3.2 | 6.4 | 0.30 | 1.75 | 1.75 | 99 | 1004.2 |
| 20260506212405 | 8 | 359 | 4.8 | 9.7 | 0.43 | 1.73 | 1.73 | 99 | 1004.0 |
| 20260506211900 | 8 | 356 | 3.2 | 9.7 | 0.48 | 1.70 | 1.70 | 99 | 1003.6 |
| 20260506211357 | 8 | 337 | 4.8 | 6.4 | 0.18 | 1.65 | 1.65 | 99 | 1003.9 |
| 20260506210854 | 8 | 349 | 6.4 | 11.3 | 0.00 | 1.63 | 1.63 | 99 | 1003.6 |
| 20260506210350 | 8 | 347 | 4.8 | 6.4 | 0.00 | 1.63 | 1.63 | 99 | 1003.4 |
| 20260506205842 | 8 | 17 | 3.2 | 4.8 | 0.13 | 1.63 | 1.63 | 99 | 1003.4 |
| 20260506205338 | 8 | 7 | 4.8 | 9.7 | 0.18 | 1.60 | 1.60 | 99 | 1003.4 |
| 20260506204834 | 8 | 12 | 6.4 | 9.7 | 0.18 | 1.60 | 1.60 | 99 | 1003.2 |
| 20260506204332 | 8 | 332 | 9.7 | 14.5 | 0.00 | 1.57 | 1.57 | 99 | 1003.4 |
| 20260506203830 | 9 | 343 | 9.7 | 14.5 | 0.00 | 1.57 | 1.57 | 99 | 1003.4 |
| 20260506203327 | 9 | 2 | 4.8 | 9.7 | 0.00 | 1.57 | 1.57 | 99 | 1003.1 |
| 20260506202823 | 9 | 323 | 6.4 | 9.7 | 0.00 | 1.57 | 1.57 | 99 | 1003.3 |
| 20260506202320 | 9 | 355 | 6.4 | 6.4 | 0.00 | 1.57 | 1.57 | 99 | 1003.4 |
| 20260506201816 | 9 | 357 | 6.4 | 9.7 | 0.00 | 1.57 | 1.57 | 99 | 1003.4 |
| 20260506201314 | 9 | 328 | 8.0 | 9.7 | 0.00 | 1.57 | 1.57 | 99 | 1003.3 |
| 20260506200810 | 9 | 295 | 3.2 | 12.9 | 0.00 | 1.57 | 1.57 | 99 | 1003.5 |
| 20260506200306 | 10 | 354 | 4.8 | 9.7 | 0.00 | 1.57 | 1.57 | 99 | 1003.4 |
| 20260506195803 | 10 | 10 | 3.2 | 6.4 | 0.00 | 1.57 | 1.57 | 99 | 1003.4 |
| 20260506195300 | 10 | 300 | 6.4 | 6.4 | 0.00 | 1.57 | 1.57 | 99 | 1003.3 |
| 20260506194757 | 10 | 341 | 1.6 | 3.2 | 0.18 | 1.57 | 1.57 | 99 | 1003.2 |
| 20260506194253 | 10 | 269 | 3.2 | 14.5 | 0.18 | 1.57 | 1.57 | 99 | 1003.5 |
| 20260506193752 | 11 | 14 | 3.2 | 4.8 | 0.00 | 1.55 | 1.55 | 99 | 1003.4 |
| 20260506193248 | 11 | 305 | 3.2 | 9.7 | 0.13 | 1.55 | 1.55 | 99 | 1003.6 |
| 20260506192744 | 12 | 358 | 3.2 | 6.4 | 0.13 | 1.55 | 1.55 | 99 | 1003.6 |
| 20260506192241 | 12 | 306 | 3.2 | 3.2 | 0.18 | 1.52 | 1.52 | 99 | 1003.5 |
| 20260506191738 | 12 | 333 | 0.0 | 3.2 | 0.18 | 1.52 | 1.52 | 99 | 1003.5 |
| 20260506191234 | 12 | 355 | 1.6 | 1.6 | 0.13 | 1.50 | 1.50 | 99 | 1003.5 |
| 20260506190732 | 12 | 349 | 1.6 | 3.2 | 0.30 | 1.50 | 1.50 | 99 | 1003.6 |
| 20260506190228 | 12 | 334 | 1.6 | 3.2 | 0.30 | 1.47 | 1.47 | 99 | 1003.7 |
| 20260506185725 | 13 | 8 | 0.0 | 1.6 | 0.30 | 1.45 | 1.45 | 99 | 1003.9 |
| 20260506185221 | 13 | 279 | 0.0 | 3.2 | 0.48 | 1.42 | 1.42 | 99 | 1004.0 |
| 20260506184719 | 13 | 264 | 1.6 | 3.2 | 0.30 | 1.37 | 1.37 | 99 | 1004.1 |
| 20260506184216 | 13 | 294 | 3.2 | 3.2 | 0.30 | 1.35 | 1.35 | 99 | 1003.9 |
| 20260506183713 | 13 | 328 | 4.8 | 17.7 | 0.36 | 1.32 | 1.32 | 99 | 1003.9 |
| 20260506183208 | 13 | 276 | 1.6 | 3.2 | 0.30 | 1.30 | 1.30 | 99 | 1003.9 |
| 20260506182706 | 13 | 284 | 1.6 | 3.2 | 0.30 | 1.27 | 1.27 | 99 | 1004.1 |
| 20260506182203 | 13 | 274 | 0.0 | 0.0 | 0.30 | 1.24 | 1.24 | 99 | 1003.9 |
| 20260506181700 | 13 | 232 | 3.2 | 3.2 | 0.13 | 1.22 | 1.22 | 99 | 1004.2 |
| 20260506181158 | 13 | 252 | 0.0 | 0.0 | 0.30 | 1.19 | 1.19 | 99 | 1004.0 |
| 20260506180655 | 13 | 262 | 1.6 | 4.8 | 0.48 | 1.19 | 1.19 | 99 | 1004.1 |
| 20260506180151 | 13 | 164 | 3.2 | 3.2 | 0.30 | 1.14 | 1.14 | 99 | 1004.4 |
| 20260506175648 | 13 | 192 | 3.2 | 3.2 | 0.30 | 1.12 | 1.12 | 99 | 1004.3 |
| 20260506175145 | 13 | 196 | 3.2 | 4.8 | 0.30 | 1.09 | 1.09 | 99 | 1004.5 |
| 20260506174643 | 13 | 164 | 3.2 | 6.4 | 0.30 | 1.07 | 1.07 | 99 | 1004.6 |
| 20260506174139 | 13 | 238 | 3.2 | 4.8 | 0.30 | 1.04 | 1.04 | 99 | 1004.6 |
| 20260506173637 | 13 | 204 | 1.6 | 3.2 | 0.30 | 1.02 | 1.02 | 99 | 1004.5 |
| 20260506173133 | 13 | 146 | 3.2 | 3.2 | 0.18 | 0.99 | 0.99 | 99 | 1004.5 |
| 20260506172630 | 13 | 219 | 1.6 | 3.2 | 0.18 | 0.97 | 0.97 | 99 | 1004.5 |
| 20260506172121 | 12 | 258 | 0.0 | 0.0 | 0.18 | 0.97 | 0.97 | 99 | 1004.6 |
| 20260506171620 | 12 | 327 | 0.0 | 0.0 | 0.13 | 0.94 | 0.94 | 99 | 1004.4 |
| 20260506171117 | 12 | 327 | 0.0 | 0.0 | 0.18 | 0.91 | 0.91 | 99 | 1004.5 |
| 20260506170614 | 12 | 328 | 0.0 | 0.0 | 0.18 | 0.91 | 0.91 | 99 | 1004.4 |
| 20260506170110 | 12 | 325 | 0.0 | 1.6 | 0.13 | 0.89 | 0.89 | 99 | 1004.6 |
| 20260506165609 | 12 | 333 | 1.6 | 3.2 | 0.13 | 0.89 | 0.89 | 99 | 1004.6 |
| 20260506165059 | 12 | 346 | 1.6 | 1.6 | 0.18 | 0.86 | 0.86 | 99 | 1004.7 |
| 20260506164556 | 12 | 16 | 1.6 | 3.2 | 0.18 | 0.86 | 0.86 | 99 | 1004.6 |
| 20260506164053 | 12 | 312 | 0.0 | 0.0 | 0.13 | 0.84 | 0.84 | 99 | 1004.6 |
| 20260506163549 | 12 | 297 | 0.0 | 3.2 | 0.13 | 0.84 | 0.84 | 99 | 1004.7 |
| 20260506163045 | 12 | 200 | 3.2 | 3.2 | 0.00 | 0.81 | 0.81 | 99 | 1004.9 |
| 20260506162541 | 12 | 319 | 0.0 | 1.6 | 0.00 | 0.81 | 0.81 | 99 | 1004.7 |
| 20260506162033 | 12 | 294 | 0.0 | 0.0 | 0.18 | 0.81 | 0.81 | 99 | 1005.0 |
| 20260506161530 | 12 | 254 | 1.6 | 3.2 | 0.18 | 0.81 | 0.81 | 99 | 1005.1 |
| 20260506161027 | 12 | 221 | 0.0 | 0.0 | 0.13 | 0.79 | 0.79 | 99 | 1005.5 |
| 20260506160525 | 12 | 5 | 0.0 | 0.0 | 0.13 | 0.79 | 0.79 | 99 | 1005.5 |
| 20260506160022 | 12 | 271 | 0.0 | 0.0 | 0.00 | 0.76 | 0.76 | 99 | 1005.7 |
| 20260506155521 | 12 | 331 | 0.0 | 0.0 | 0.18 | 0.76 | 0.76 | 99 | 1005.6 |
| 20260506153652 | 11 | 358 | 0.0 | 0.0 | 0.18 | 0.71 | 0.71 | 99 | 1006.0 |
| 20260506153149 | 11 | 358 | 0.0 | 0.0 | 0.18 | 0.71 | 0.71 | 99 | 1005.9 |
| 20260506152646 | 11 | 327 | 0.0 | 0.0 | 0.13 | 0.69 | 0.69 | 99 | 1006.1 |
| 20260506152144 | 11 | 328 | 0.0 | 0.0 | 0.13 | 0.69 | 0.69 | 99 | 1006.2 |
| 20260506151642 | 11 | 311 | 0.0 | 0.0 | 0.00 | 0.66 | 0.66 | 99 | 1006.2 |
| 20260506151138 | 11 | 317 | 1.6 | 3.2 | 0.00 | 0.66 | 0.66 | 99 | 1006.2 |
| 20260506150635 | 11 | 0 | 3.2 | 3.2 | 0.18 | 0.66 | 0.66 | 99 | 1006.2 |
| 20260506150133 | 11 | 5 | 0.0 | 1.6 | 0.18 | 0.66 | 0.66 | 99 | 1006.3 |
| 20260506145629 | 11 | 13 | 0.0 | 3.2 | 0.00 | 0.64 | 0.64 | 99 | 1006.5 |
| 20260506145126 | 11 | 319 | 1.6 | 1.6 | 0.00 | 0.64 | 0.64 | 99 | 1006.4 |
| 20260506144624 | 11 | 287 | 0.0 | 0.0 | 0.18 | 0.64 | 0.64 | 99 | 1006.2 |
| 20260506144120 | 11 | 294 | 1.6 | 1.6 | 0.18 | 0.64 | 0.64 | 99 | 1006.2 |
| 20260506143618 | 11 | 287 | 1.6 | 3.2 | 0.00 | 0.61 | 0.61 | 99 | 1006.2 |
| 20260506143115 | 11 | 301 | 1.6 | 3.2 | 0.00 | 0.61 | 0.61 | 99 | 1006.2 |
| 20260506142614 | 11 | 305 | 1.6 | 3.2 | 0.00 | 0.61 | 0.61 | 99 | 1006.1 |
| 20260506142112 | 11 | 15 | 1.6 | 4.8 | 0.00 | 0.61 | 0.61 | 99 | 1006.3 |
| 20260506141609 | 11 | 6 | 1.6 | 3.2 | 0.00 | 0.61 | 0.61 | 99 | 1006.2 |
| 20260506141107 | 11 | 331 | 3.2 | 4.8 | 0.00 | 0.61 | 0.61 | 99 | 1006.2 |
| 20260506140604 | 11 | 341 | 4.8 | 6.4 | 0.00 | 0.61 | 0.61 | 99 | 1006.1 |
| 20260506135558 | 11 | 337 | 3.2 | 4.8 | 0.00 | 0.61 | 0.61 | 99 | 1006.1 |
| 20260506135054 | 11 | 312 | 3.2 | 4.8 | 0.13 | 0.61 | 0.61 | 99 | 1006.1 |
| 20260506134551 | 11 | 14 | 1.6 | 3.2 | 0.13 | 0.61 | 0.61 | 99 | 1005.9 |
| 20260506134047 | 11 | 356 | 3.2 | 4.8 | 0.18 | 0.58 | 0.58 | 99 | 1006.2 |
| 20260506133544 | 10 | 1.6 | 3.2 | 0.18 | 0.58 | 0.58 | 99 | 1006.5 | |
| 20260506133041 | 11 | 285 | 1.6 | 3.2 | 0.00 | 0.56 | 0.56 | 99 | 1006.8 |
| 20260506132539 | 11 | 319 | 3.2 | 3.2 | 0.13 | 0.56 | 0.56 | 99 | 1006.6 |
| 20260506132036 | 11 | 317 | 0.0 | 3.2 | 0.13 | 0.56 | 0.56 | 99 | 1006.7 |
| 20260506131533 | 11 | 347 | 1.6 | 3.2 | 0.00 | 0.53 | 0.53 | 99 | 1006.4 |
| 20260506131029 | 11 | 333 | 3.2 | 3.2 | 0.18 | 0.53 | 0.53 | 99 | 1006.6 |
| 20260506130526 | 10 | 1 | 0.0 | 0.0 | 0.18 | 0.53 | 0.53 | 99 | 1006.7 |
| 20260506130024 | 10 | 331 | 1.6 | 1.6 | 0.00 | 0.51 | 0.51 | 99 | 1006.7 |
| 20260506125522 | 10 | 7 | 4.8 | 6.4 | 0.00 | 0.51 | 0.51 | 99 | 1006.5 |
| 20260506125019 | 10 | 358 | 3.2 | 4.8 | 0.00 | 0.51 | 0.51 | 99 | 1006.6 |
| 20260506124517 | 10 | 354 | 6.4 | 6.4 | 0.00 | 0.51 | 0.51 | 99 | 1006.5 |
| 20260506124015 | 10 | 328 | 1.6 | 4.8 | 0.00 | 0.51 | 0.51 | 99 | 1006.8 |
| 20260506123512 | 11 | 328 | 1.6 | 3.2 | 0.00 | 0.51 | 0.51 | 99 | 1006.6 |
| 20260506123010 | 11 | 323 | 1.6 | 4.8 | 0.00 | 0.51 | 0.51 | 99 | 1006.5 |
| 20260506122506 | 11 | 343 | 3.2 | 4.8 | 0.00 | 0.51 | 0.51 | 99 | 1006.6 |
| 20260506122005 | 11 | 285 | 1.6 | 3.2 | 0.00 | 0.51 | 0.51 | 99 | 1006.5 |
| 20260506121502 | 11 | 324 | 0.0 | 0.0 | 0.00 | 0.51 | 0.51 | 99 | 1006.5 |
| 20260506120958 | 11 | 267 | 0.0 | 0.0 | 0.00 | 0.51 | 0.51 | 99 | 1006.4 |
| 20260506120456 | 11 | 288 | 0.0 | 0.0 | 0.00 | 0.51 | 0.51 | 99 | 1006.5 |
| 20260506115953 | 10 | 289 | 0.0 | 0.0 | 0.00 | 0.51 | 0.51 | 99 | 1006.6 |
| 20260506115451 | 11 | 289 | 0.0 | 0.0 | 0.00 | 0.51 | 0.51 | 99 | 1006.5 |
| 20260506114949 | 10 | 288 | 0.0 | 0.0 | 0.00 | 0.51 | 0.51 | 99 | 1006.6 |
| 20260506114446 | 10 | 337 | 0.0 | 0.0 | 0.00 | 0.51 | 0.51 | 99 | 1006.5 |
| 20260506113945 | 10 | 337 | 0.0 | 0.0 | 0.00 | 0.51 | 0.51 | 99 | 1006.7 |
| 20260506113442 | 10 | 331 | 0.0 | 0.0 | 0.00 | 0.51 | 0.51 | 99 | 1006.6 |
| 20260506112938 | 10 | 325 | 0.0 | 0.0 | 0.00 | 0.51 | 0.51 | 99 | 1007.1 |
| 20260506112436 | 10 | 5 | 0.0 | 0.0 | 0.00 | 0.51 | 0.51 | 99 | 1007.2 |
| 20260506111933 | 10 | 346 | 0.0 | 0.0 | 0.00 | 0.51 | 0.51 | 99 | 1007.1 |
| 20260506111431 | 10 | 27 | 0.0 | 0.0 | 0.00 | 0.51 | 0.51 | 99 | 1007.1 |
| 20260506110928 | 10 | 352 | 0.0 | 0.0 | 0.00 | 0.51 | 0.51 | 99 | 1007.5 |
| 20260506110426 | 10 | 311 | 0.0 | 0.0 | 0.00 | 0.51 | 0.51 | 99 | 1007.2 |
| 20260506105922 | 10 | 304 | 0.0 | 0.0 | 0.00 | 0.51 | 0.51 | 99 | 1007.0 |
| 20260506105418 | 10 | 325 | 0.0 | 0.0 | 0.00 | 0.51 | 0.51 | 99 | 1007.1 |
| 20260506104916 | 10 | 91 | 0.0 | 0.0 | 0.00 | 0.51 | 0.51 | 99 | 1007.1 |
| 20260506104414 | 10 | 189 | 0.0 | 0.0 | 0.00 | 0.51 | 0.51 | 99 | 1007.2 |
| 20260506103912 | 10 | 306 | 0.0 | 0.0 | 0.00 | 0.51 | 0.51 | 99 | 1007.3 |
| 20260506103409 | 10 | 284 | 0.0 | 0.0 | 0.00 | 0.51 | 0.51 | 99 | 1007.2 |
| 20260506102906 | 10 | 318 | 0.0 | 0.0 | 0.00 | 0.51 | 0.51 | 99 | 1006.8 |
| 20260506102404 | 10 | 318 | 0.0 | 0.0 | 0.00 | 0.51 | 0.51 | 99 | 1006.8 |
| 20260506101901 | 10 | 319 | 0.0 | 0.0 | 0.00 | 0.51 | 0.51 | 99 | 1006.8 |
| 20260506101356 | 10 | 319 | 0.0 | 0.0 | 0.00 | 0.51 | 0.51 | 99 | 1006.7 |
| 20260506100854 | 10 | 317 | 0.0 | 0.0 | 0.00 | 0.51 | 0.51 | 99 | 1007.3 |
| 20260506100352 | 10 | 316 | 0.0 | 0.0 | 0.00 | 0.51 | 0.51 | 99 | 1007.3 |
| 20260506095850 | 10 | 297 | 0.0 | 0.0 | 0.00 | 0.51 | 0.51 | 99 | 1007.4 |
| 20260506095348 | 10 | 295 | 0.0 | 1.6 | 0.00 | 0.51 | 0.51 | 99 | 1007.2 |
| 20260506094844 | 10 | 343 | 1.6 | 1.6 | 0.00 | 0.51 | 0.51 | 99 | 1007.1 |
| 20260506094343 | 10 | 345 | 1.6 | 3.2 | 0.00 | 0.51 | 0.51 | 99 | 1007.2 |
| 20260506093835 | 10 | 28 | 0.0 | 0.0 | 0.00 | 0.51 | 0.51 | 99 | 1007.4 |
| 20260506093332 | 10 | 29 | 0.0 | 0.0 | 0.00 | 0.51 | 0.51 | 99 | 1007.6 |
| 20260506092830 | 10 | 358 | 1.6 | 3.2 | 0.00 | 0.51 | 0.51 | 99 | 1007.4 |
| 20260506092327 | 10 | 356 | 3.2 | 3.2 | 0.00 | 0.51 | 0.51 | 99 | 1007.7 |
| 20260506091823 | 10 | 73 | 0.0 | 0.0 | 0.00 | 0.51 | 0.51 | 99 | 1007.8 |
| 20260506091321 | 10 | 320 | 0.0 | 0.0 | 0.00 | 0.51 | 0.51 | 99 | 1008.0 |
| 20260506090819 | 10 | 321 | 0.0 | 0.0 | 0.00 | 0.51 | 0.51 | 99 | 1007.7 |
| 20260506090316 | 10 | 340 | 0.0 | 0.0 | 0.00 | 0.51 | 0.51 | 99 | 1007.3 |
| 20260506085813 | 10 | 293 | 0.0 | 0.0 | 0.00 | 0.51 | 0.51 | 99 | 1007.6 |
| 20260506085309 | 10 | 292 | 0.0 | 1.6 | 0.00 | 0.51 | 0.51 | 99 | 1007.5 |
| 20260506084806 | 10 | 36 | 0.0 | 0.0 | 0.00 | 0.51 | 0.51 | 99 | 1007.8 |
| 20260506084302 | 10 | 35 | 0.0 | 0.0 | 0.00 | 0.51 | 0.51 | 99 | 1007.5 |
| 20260506083759 | 10 | 359 | 0.0 | 0.0 | 0.00 | 0.51 | 0.51 | 99 | 1007.4 |
| 20260506083257 | 11 | 227 | 0.0 | 0.0 | 0.00 | 0.51 | 0.51 | 99 | 1007.7 |
| 20260506082754 | 11 | 269 | 0.0 | 0.0 | 0.00 | 0.51 | 0.51 | 99 | 1007.5 |
| 20260506082250 | 11 | 266 | 0.0 | 0.0 | 0.00 | 0.51 | 0.51 | 99 | 1007.4 |
| 20260506081747 | 11 | 269 | 0.0 | 0.0 | 0.00 | 0.51 | 0.51 | 99 | 1007.2 |
| 20260506081245 | 11 | 266 | 1.6 | 1.6 | 0.00 | 0.51 | 0.51 | 99 | 1007.3 |
| 20260506080743 | 11 | 218 | 0.0 | 0.0 | 0.00 | 0.51 | 0.51 | 99 | 1007.3 |
| 20260506080239 | 11 | 20 | 0.0 | 1.6 | 0.00 | 0.51 | 0.51 | 99 | 1007.2 |
| 20260506073223 | 11 | 251 | 0.0 | 0.0 | 0.00 | 0.48 | 0.48 | 99 | 1007.4 |
| 20260506072720 | 11 | 258 | 0.0 | 0.0 | 0.00 | 0.48 | 0.48 | 99 | 1007.8 |
| 20260506072217 | 11 | 258 | 0.0 | 0.0 | 0.00 | 0.48 | 0.48 | 99 | 1008.0 |
| 20260506071715 | 11 | 242 | 1.6 | 1.6 | 0.00 | 0.48 | 0.48 | 99 | 1008.0 |
| 20260506071213 | 11 | 272 | 1.6 | 1.6 | 0.18 | 0.48 | 0.48 | 99 | 1007.9 |
| 20260506070709 | 11 | 101 | 1.6 | 3.2 | 0.18 | 0.48 | 0.48 | 99 | 1007.7 |
| 20260506070207 | 11 | 186 | 1.6 | 3.2 | 0.13 | 0.46 | 0.46 | 99 | 1008.0 |
| 20260506062143 | 11 | 84 | 1.6 | 3.2 | 1.07 | 0.25 | 0.25 | 99 | 1007.8 |
| 20260506061639 | 11 | 316 | 1.6 | 1.6 | 0.30 | 0.13 | 0.13 | 99 | 1008.2 |
| 20260506061137 | 11 | 293 | 1.6 | 3.2 | 0.00 | 0.08 | 0.08 | 99 | 1007.8 |
| 20260506060635 | 11 | 357 | 1.6 | 3.2 | 0.00 | 0.08 | 0.08 | 99 | 1007.6 |
| 20260506060132 | 11 | 342 | 1.6 | 3.2 | 0.00 | 0.08 | 0.08 | 99 | 1007.7 |
| 20260506051104 | 12 | 17 | 0.0 | 3.2 | 0.36 | 0.05 | 0.05 | 99 | 1007.8 |
| 20260506050602 | 12 | 29 | 1.6 | 12.9 | 0.18 | 0.03 | 0.03 | 99 | 1007.8 |
| 20260506045052 | 13 | 354 | 1.6 | 6.4 | 0.00 | 0.00 | 0.00 | 99 | 1007.3 |
| 20260506044550 | 13 | 324 | 3.2 | 12.9 | 0.00 | 0.00 | 0.00 | 99 | 1007.0 |
| 20260506044046 | 12 | 314 | 3.2 | 4.8 | 0.00 | 0.00 | 0.00 | 99 | 1006.7 |
| 20260506043544 | 12 | 272 | 1.6 | 4.8 | 0.00 | 0.00 | 0.00 | 99 | 1006.3 |
| 20260506043042 | 12 | 260 | 3.2 | 4.8 | 0.00 | 0.00 | 0.00 | 99 | 1006.1 |
| 20260506042541 | 12 | 248 | 3.2 | 3.2 | 0.00 | 0.00 | 0.00 | 99 | 1006.1 |
| 20260506042038 | 12 | 291 | 0.0 | 0.0 | 0.00 | 0.00 | 0.00 | 99 | 1006.0 |
| 20260506041537 | 12 | 292 | 0.0 | 0.0 | 0.00 | 0.00 | 0.00 | 99 | 1005.7 |
| 20260506041033 | 12 | 292 | 0.0 | 0.0 | 0.00 | 0.00 | 0.00 | 99 | 1006.1 |
| 20260506040531 | 12 | 292 | 0.0 | 0.0 | 0.00 | 0.00 | 0.00 | 99 | 1006.0 |
| 20260506040027 | 12 | 291 | 0.0 | 0.0 | 0.00 | 0.00 | 0.00 | 99 | 1006.2 |
| 20260506035524 | 13 | 292 | 0.0 | 0.0 | 0.00 | 0.36 | 0.36 | 99 | 1005.9 |
| 20260506035021 | 13 | 292 | 0.0 | 0.0 | 0.00 | 0.36 | 0.36 | 97 | 1005.9 |
| 20260506034518 | 13 | 290 | 0.0 | 0.0 | 0.00 | 0.36 | 0.36 | 97 | 1006.0 |
| 20260506034015 | 13 | 256 | 0.0 | 0.0 | 0.00 | 0.36 | 0.36 | 96 | 1006.0 |
| 20260506033513 | 13 | 230 | 0.0 | 1.6 | 0.00 | 0.36 | 0.36 | 95 | 1006.2 |
| 20260506033009 | 13 | 210 | 3.2 | 6.4 | 0.00 | 0.36 | 0.36 | 96 | 1006.1 |
| 20260506032507 | 13 | 260 | 0.0 | 3.2 | 0.00 | 0.36 | 0.36 | 95 | 1006.0 |
| 20260506032003 | 13 | 248 | 1.6 | 1.6 | 0.00 | 0.36 | 0.36 | 92 | 1006.0 |
| 20260506031501 | 13 | 216 | 0.0 | 3.2 | 0.00 | 0.36 | 0.36 | 90 | 1005.8 |
| 20260506030958 | 13 | 133 | 0.0 | 3.2 | 0.00 | 0.36 | 0.36 | 98 | 1005.8 |
| 20260506030456 | 12 | 227 | 1.6 | 3.2 | 0.00 | 0.36 | 0.36 | 99 | 1005.8 |
| 20260506025953 | 12 | 199 | 1.6 | 3.2 | 0.00 | 0.36 | 0.36 | 99 | 1005.8 |
| 20260506025449 | 12 | 225 | 1.6 | 3.2 | 0.00 | 0.36 | 0.36 | 99 | 1005.6 |
| 20260506024946 | 12 | 244 | 1.6 | 3.2 | 0.00 | 0.36 | 0.36 | 99 | 1005.8 |
| 20260506024443 | 13 | 266 | 0.0 | 0.0 | 0.00 | 0.36 | 0.36 | 98 | 1005.7 |
| 20260506023938 | 13 | 266 | 1.6 | 4.8 | 0.00 | 0.36 | 0.36 | 95 | 1005.8 |
| 20260506023436 | 13 | 262 | 1.6 | 3.2 | 0.00 | 0.36 | 0.36 | 92 | 1005.8 |
| 20260506022932 | 13 | 229 | 1.6 | 3.2 | 0.00 | 0.36 | 0.36 | 93 | 1005.5 |
| 20260506022430 | 13 | 236 | 1.6 | 4.8 | 0.00 | 0.36 | 0.36 | 94 | 1005.6 |
| 20260506021928 | 13 | 208 | 1.6 | 1.6 | 0.00 | 0.36 | 0.36 | 97 | 1005.7 |
| 20260506021425 | 13 | 175 | 1.6 | 3.2 | 0.00 | 0.36 | 0.36 | 96 | 1005.7 |
| 20260506020922 | 13 | 195 | 0.0 | 3.2 | 0.00 | 0.36 | 0.36 | 93 | 1005.9 |
| 20260506020420 | 15 | 220 | 1.6 | 3.2 | 0.00 | 0.36 | 0.36 | 89 | 1005.7 |
| 20260506015916 | 14 | 137 | 1.6 | 3.2 | 0.00 | 0.36 | 0.36 | 90 | 1005.8 |
| 20260506015414 | 15 | 178 | 0.0 | 3.2 | 0.00 | 0.36 | 0.36 | 89 | 1005.8 |
| 20260506014911 | 15 | 152 | 1.6 | 3.2 | 0.00 | 0.36 | 0.36 | 89 | 1005.8 |
| 20260506014408 | 15 | 146 | 1.6 | 4.8 | 0.00 | 0.36 | 0.36 | 88 | 1005.9 |
| 20260506013904 | 15 | 188 | 3.2 | 3.2 | 0.00 | 0.36 | 0.36 | 91 | 1005.9 |
| 20260506013402 | 15 | 137 | 4.8 | 4.8 | 0.00 | 0.36 | 0.36 | 91 | 1005.9 |
| 20260506012858 | 15 | 145 | 1.6 | 1.6 | 0.00 | 0.36 | 0.36 | 92 | 1006.0 |
| 20260506012355 | 15 | 155 | 3.2 | 6.4 | 0.00 | 0.36 | 0.36 | 89 | 1006.0 |
| 20260506011852 | 15 | 162 | 4.8 | 6.4 | 0.00 | 0.36 | 0.36 | 89 | 1006.0 |
| 20260506011349 | 15 | 166 | 1.6 | 3.2 | 0.00 | 0.36 | 0.36 | 92 | 1006.0 |
| 20260506010846 | 15 | 83 | 4.8 | 6.4 | 0.00 | 0.36 | 0.36 | 89 | 1005.9 |
| 20260506010344 | 15 | 147 | 1.6 | 3.2 | 0.00 | 0.36 | 0.36 | 92 | 1005.9 |
| 20260506005841 | 14 | 159 | 4.8 | 4.8 | 0.00 | 0.36 | 0.36 | 94 | 1005.8 |
| 20260506005338 | 13 | 106 | 3.2 | 3.2 | 0.00 | 0.36 | 0.36 | 94 | 1006.0 |
| 20260506004833 | 14 | 121 | 1.6 | 3.2 | 0.00 | 0.36 | 0.36 | 96 | 1005.8 |
| 20260506004332 | 15 | 164 | 3.2 | 3.2 | 0.00 | 0.36 | 0.36 | 91 | 1005.7 |
| 20260506003827 | 14 | 157 | 3.2 | 4.8 | 0.00 | 0.36 | 0.36 | 92 | 1005.6 |
| 20260506003324 | 14 | 188 | 1.6 | 4.8 | 0.00 | 0.36 | 0.36 | 97 | 1005.6 |
| 20260506002820 | 14 | 187 | 1.6 | 3.2 | 0.00 | 0.36 | 0.36 | 97 | 1005.4 |
| 20260506002317 | 15 | 117 | 3.2 | 4.8 | 0.00 | 0.36 | 0.36 | 92 | 1005.2 |
| 20260506001812 | 15 | 181 | 3.2 | 4.8 | 0.00 | 0.36 | 0.36 | 92 | 1005.2 |
| 20260506001310 | 15 | 188 | 4.8 | 4.8 | 0.00 | 0.36 | 0.36 | 92 | 1005.3 |
| 20260506000807 | 14 | 221 | 1.6 | 3.2 | 0.00 | 0.36 | 0.36 | 97 | 1005.1 |
| 20260506000304 | 15 | 200 | 3.2 | 4.8 | 0.00 | 0.36 | 0.36 | 96 | 1005.0 |
| 20260505235801 | 15 | 278 | 0.0 | 1.6 | 0.00 | 0.36 | 0.36 | 95 | 1005.1 |
| 20260505235259 | 15 | 204 | 1.6 | 4.8 | 0.00 | 0.36 | 0.36 | 94 | 1005.1 |
| 20260505234755 | 14 | 147 | 9.7 | 11.3 | 0.00 | 0.36 | 0.36 | 95 | 1004.9 |
| 20260505234253 | 13 | 36 | 0.0 | 3.2 | 0.00 | 0.36 | 0.36 | 99 | 1004.9 |
| 20260505233749 | 13 | 117 | 0.0 | 1.6 | 0.00 | 0.36 | 0.36 | 99 | 1004.9 |
| 20260505233248 | 14 | 85 | 1.6 | 1.6 | 0.00 | 0.36 | 0.36 | 99 | 1004.7 |
| 20260505232744 | 13 | 101 | 3.2 | 3.2 | 0.00 | 0.36 | 0.36 | 99 | 1005.1 |
| 20260505232242 | 13 | 129 | 3.2 | 3.2 | 0.00 | 0.36 | 0.36 | 99 | 1005.0 |
| 20260505231738 | 13 | 121 | 3.2 | 4.8 | 0.00 | 0.36 | 0.36 | 99 | 1004.9 |
| 20260505231237 | 13 | 71 | 1.6 | 3.2 | 0.00 | 0.36 | 0.36 | 99 | 1004.9 |
| 20260505230735 | 14 | 103 | 1.6 | 3.2 | 0.00 | 0.36 | 0.36 | 99 | 1005.1 |
| 20260505230231 | 14 | 168 | 1.6 | 3.2 | 0.00 | 0.36 | 0.36 | 99 | 1005.1 |
| 20260505225728 | 14 | 177 | 1.6 | 3.2 | 0.00 | 0.36 | 0.36 | 99 | 1005.0 |
| 20260505225225 | 14 | 155 | 1.6 | 3.2 | 0.00 | 0.36 | 0.36 | 99 | 1004.9 |
| 20260505224720 | 14 | 138 | 6.4 | 6.4 | 0.00 | 0.36 | 0.36 | 99 | 1004.7 |
| 20260505224218 | 14 | 175 | 3.2 | 4.8 | 0.00 | 0.36 | 0.36 | 99 | 1004.8 |
| 20260505223716 | 14 | 206 | 3.2 | 3.2 | 0.00 | 0.36 | 0.36 | 99 | 1004.8 |
| 20260505223212 | 15 | 190 | 1.6 | 3.2 | 0.00 | 0.36 | 0.36 | 99 | 1004.6 |
| 20260505222708 | 15 | 290 | 0.0 | 1.6 | 0.00 | 0.36 | 0.36 | 99 | 1004.6 |